Location: Santa Giusta
(39.8800°N, 8.6069°E)
Time: 17:43:50
(UTC+00:00)

Radarsat Rocket - Pass Details

Date: 02 February 2023
Orbit: 933 x 1491 km, 100.6° (Epoch: 31 March)

Event Time Altitude Azimuth Distance (km) Brightness Sun altitude
Rises 17:16:35 0° 158° (SSE) 3,589 6.9 -6.4°
Reaches altitude 10° 17:18:56 10° 157° (SSE) 2,671 6.2 -6.9°
Maximum altitude 17:24:50 79° 72° (ENE) 1,026 4.0 -8.0°
Drops below altitude 10° 17:31:22 10° 347° (NNW) 2,943 6.5 -9.2°
Sets 17:34:03 0° 346° (NNW) 3,980 7.2 -9.7°
